Weather at Black Rock City Airport

Public forecast

Using degrees Fahrenheit for public forecast. Weather courtesy of forecast.io.

Closest aviation weather report (METAR) to Black Rock City Airport

Closest report is Derby Field, 51.0 nm (94.4 km) SE. Retrieved 2021/01/22 10:53 UTC (41 minutes ago):

KLOL 221053Z AUTO 00000KT 10SM BKN100 M03/M09 A2983 RMK AO2 SLP108 T10281089

Closest aviation forecast (TAF) to Black Rock City Airport

Forecast is more than 12 hours old.

Closest forecast is Derby Field, 51.0 nm (94.4 km) SE. Retrieved 2010/01/05 05:22 UTC (11 years ago):

TAF KLOL 050522Z 0506/0606 00000KT 1/4SM FZFG VV001 FM052000 VRB03KT 3SM BR OVC002 AMD NOT SKED